Probability
0 0 0 0 0 0 0 0 0 0 0 0 0 0 0 0 0 0 0 0 0 0 0 0 0 0 0 0 0 0 0 0 0 0 0 0 0 0 0 0 0 0 0 0
0 0 0 0 0 0 0 0 0 0 0 0 0 0 0 0 0 0 0 0 0 0 0 0 0 0 0 0 0 0 0 0 0 0 0 0 0 0 0 0 0 0 0 0
0 0 0 0 0 0 0 0 0 0 0 0 0 0 0 0 0 0 0 0 0 0 0 0 0 0 0 0 0 0 0 0 0 0 0 0 0 0 0 0 0 0 0 0
0 0 0 0 0 0 0 0 0 0 0 0 0 0 0 0 0 0 0 0 0 0 0 0 0 0 0 0 0 0 0 0 0 0 0 0 0 0 0 0 0 0 0 0
0 0 0 0 0 0 0 0 0 0 0 0 0 0 0 0 0 0 0 0 0 0 0 0 0 0 0 0 0 0 0 0 0 0 0 0 0 0 0 0 0 0 0 0
0 0 0 0 0 0 0 0 0 0 0 0 0 0 0 0 0 0 0 0 0 0 0 0 0 0 0 0 0 0 0 0 0 0 0 0 0 0 0 0 0 0 0 0
0 0 0 0 0 0 0 0 0 0 0 0 0 0 0 0 0 0 0 0 0 0 0 0 0 0 0 0 0 0 0 0 0 0 0 0 0 0 0 0 0 0 0 0
0 0 0 0 0 0 0 0 0 0 0 0 0 0 0 0 0 0 0 0 0 0 0 0 0 0 0 0 0 0 0 0 0 0 0 0 0 0 0 0 0 0 0 0
0 0 0 0 0 0 0 0 0 0 0 0 0 0 0 0 0 0 0 0 0 0 0 0 0 0 0 0 0 0 0 0 0 0 0 0 0 0 0 0 0 0 0 0
0 0 0 0 0 0 0 0 0 0 0 0 0 0 0 0 0 0 0 0 0 0 0 0 0 0 0 0 0 0 0 0 0 0 0 0 0 0 0 0 0 0 0 0
0 0 0 0 0 0 0 0 0 0 0 0 0 0 0 0 0 0 0 0 0 0 0 0 0 0 0 0 0 0 0 0 0 0 0 0 0 0 0 0 0 0 0 0
0 0 0 0 0 0 0 0 0 0 0 0 0 0 0 0 0 0 0 0 0 0 0 0 0 0 0 0 0 0 0 0 0 0 0 0 0 0 0 0 0 0 0 0
0 0 0 0 0 0 0 0 0 0 0 0 0 0 0 0 0 0 0 0 0 0 0 0 0 0 0 0 0 0 0 0 0 0 0 0 0 0 0 0 0 0 0 0
0 0 0 0 0 0 0 0 0 0 0 0 0 0 0 0 0 0 0 0 0 0 0 0 0 0 0 0 0 0 0 0 0 0 0 0 0 0 0 0 0 0 0 0
0 0 0 0 0 0 0 0 0 0 0 0 0 0 0 0 0 0 0 0 0 0 0 0 0 0 0 0 0 0 0 0 0 0 0 0 0 0 0 0 0 0 0 0
0 0 0 0 0 0 0 0 0 0 0 0 0 0 0 0 0 0 0 0 0 0 0 0 0 0 0 0 0 0 0 0 0 0 0 0 0 0 0 0 0 0 0 0
0 0 0 0 0 0 0 0 0 0 0 0 0 0 0 0 0 0 0 0 0 0 0 0 0 0 0 0 0 0 0 0 0 0 0 0 0 0 0 0 0 0 0 0
0 0 0 0 0 0 0 0 0 0 0 0 0 0 0 0 0 0 0 0 0 0 0 0 0 0 0 0 0 0 0 0 0 0 0 0 0 0 0 0 0 0 0 0
0 0 0 0 0 0 0 0 0 0 0 0 0 0 0 0 0 0 0 0 0 0 0 0 0 0 0 0 0 0 0 0 0 0 0 0 0 0 0 0 0 0 0 0
0 0 0 0 0 0 0 0 0 0 0 0 0 0 0 0 0 0 0 0 0 0 0 0 0 0 0 0 0 0 0 0 0 0 0 0 0 0 0 0 0 0 0 0
0 0 0 0 0 0 0 0 0 0 0 0 0 0 0 0 0 0 0 0 0 0 0 0 0 0 0 0 0 0 0 0 0 0 0 0 0 0 0 0 0 0 0 0
0 0 0 0 0 0 0 0 0 0 0 0 0 0 0 0 0 0 0 0 0 0 0 0 0 0 0 0 0 0 0 0 0 0 0 0 0 0 0 0 0 0 0 0
0 0 0 0 0 0 0 0 0 0 0 0 0 0 0 0 0 0 0 0 0 0 0 0 0 0 0 0 0 0 0 0 0 0 0 0 0 0 0 0 0 0 0 0
0 0 0 0 0 0 0 0 0 0 0 0 0 0 0 0 0 0 0 0 0 0 0 0 0 0 0 0 0 0 0 0 0 0 0 0 0 0 0 0 0 0 0 0
0 0 0 0 0 0 0 0 0 0 0 0 0 0 0 0 0 0 0 0 0 0 0 0 0 0 0 0 0 0 0 0 0 0 0 0 0 0 0 0 0 0 0 0
0 0 0 0 0 0 0 0 0 0 0 0 0 0 0 0 0 0 0 0 0 0 0 0 0 0 0 0 0 0 0 0 0 0 0 0 0 0 0 0 0 0 0 0
Wind_Speed
3 4 5 8 8 5 3 3 5 7 5 3 9 13 16 10 7 10 10 9 10 9 4 2 1 1 3 4 6 8 9 8 8 5 5 4 3 2 2 2 2 2 2 3
3 5 9 5 4 3 3 3 6 7 4 4 7 13 13 10 10 11 11 11 11 8 5 4 3 2 3 4 6 7 8 9 8 5 4 3 4 3 2 2 3 3 3 3
10 5 4 6 4 4 4 5 6 6 6 4 5 11 9 7 5 6 7 8 8 11 10 7 5 4 4 4 6 7 7 8 7 7 5 4 4 3 2 2 2 2 3 3
7 5 4 4 6 7 6 7 6 4 2 5 2 7 10 7 8 7 7 6 8 8 8 7 7 5 5 4 4 6 7 7 7 7 7 6 4 3 3 2 2 2 3 3
8 5 7 8 9 10 7 1 2 1 2 3 2 4 12 6 8 8 6 7 7 7 8 8 7 6 5 4 5 6 7 6 6 6 7 7 5 4 3 3 3 2 2 3
5 4 7 8 4 7 5 5 5 5 3 4 5 5 11 6 6 7 5 4 6 7 7 7 6 6 5 4 5 6 7 6 5 6 6 7 8 6 5 4 3 2 1 1
3 3 3 4 5 3 5 5 3 4 2 7 2 4 13 10 7 7 9 7 6 7 8 8 8 8 7 7 6 6 7 6 6 6 6 6 7 7 6 5 4 3 1 1
8 6 8 7 8 8 6 9 7 5 5 5 2 7 12 8 7 6 6 4 5 7 8 8 9 8 8 8 7 7 8 7 6 6 6 5 6 4 4 4 4 3 2 2
11 8 2 5 4 11 7 5 6 5 2 4 7 8 13 6 4 4 3 0 4 7 8 8 8 8 8 8 8 8 8 7 7 7 6 6 5 5 5 4 3 2 2 2
10 5 2 2 5 2 7 9 6 5 4 5 6 6 7 7 6 6 4 3 5 6 7 7 7 8 7 7 7 7 7 8 7 7 6 5 5 5 5 4 4 3 3 2
7 7 2 3 7 10 6 5 5 5 5 5 4 8 7 6 5 7 7 5 6 7 8 8 7 7 7 6 7 7 7 7 6 7 6 6 5 4 4 4 4 3 2 2
7 7 5 7 4 6 7 9 9 7 6 5 4 10 7 5 6 6 6 4 4 6 6 7 7 7 7 8 7 8 7 7 7 7 6 6 5 5 4 4 3 3 3 3
10 8 5 0 1 1 4 5 7 5 5 6 5 10 5 3 4 4 4 4 3 5 6 6 7 8 9 9 9 8 8 8 7 7 7 6 5 5 5 4 3 3 3 3
9 7 9 12 8 8 7 7 7 7 6 7 10 11 10 8 7 7 6 4 3 4 5 7 8 8 9 9 9 9 8 8 8 7 7 7 6 6 5 4 3 3 3 3
8 7 6 6 5 7 7 9 10 11 11 11 10 12 15 11 8 7 6 4 4 4 5 7 8 8 8 8 8 8 8 8 8 8 7 7 5 4 4 3 3 3 3 4
7 7 7 4 5 6 5 7 10 11 9 10 8 12 12 8 5 6 6 5 6 6 6 6 6 7 9 10 9 9 9 8 8 8 7 6 5 4 4 3 3 3 3 4
8 8 7 4 2 3 7 11 12 8 9 10 13 16 8 5 7 8 7 6 7 6 5 5 6 7 8 8 9 9 9 8 8 7 6 5 5 4 4 3 3 3 4 4
11 9 6 5 5 8 10 5 10 10 9 11 9 9 7 8 6 5 5 6 6 4 4 4 4 4 4 5 6 7 7 8 7 6 6 5 5 4 3 3 4 4 3 4
6 10 6 5 5 7 9 6 8 9 10 10 12 11 5 2 0 4 4 4 4 3 2 2 2 3 5 6 7 8 7 6 6 6 5 5 4 4 3 4 5 4 3 5
5 6 7 6 6 8 9 4 5 6 7 8 10 10 6 6 2 5 2 3 2 2 2 3 4 5 5 5 7 8 7 6 6 5 5 4 4 4 4 5 4 3 4 5
5 4 5 6 5 9 9 3 7 6 10 4 7 7 9 9 6 2 3 3 3 3 3 4 5 5 5 6 7 7 6 5 4 4 3 3 3 4 4 4 3 4 4 5
11 8 7 6 5 10 6 9 10 10 3 3 5 6 8 6 3 3 3 3 4 4 4 5 5 5 4 5 7 6 5 3 3 3 3 2 3 3 3 3 4 4 4 6
8 10 9 11 10 6 7 9 6 4 5 5 5 5 7 6 5 4 3 4 4 4 4 4 6 6 4 4 5 5 3 3 3 2 2 2 3 3 3 4 5 4 4 5
4 2 5 4 8 6 6 4 4 6 5 4 5 6 8 6 6 5 4 4 4 4 4 4 6 6 4 3 3 3 3 3 3 2 2 2 3 4 4 3 4 4 5 6
7 8 5 5 6 3 5 9 8 5 4 4 4 5 6 7 6 6 5 5 5 4 4 4 5 5 4 3 3 3 3 3 2 2 3 3 4 4 5 5 5 6 6 7
7 10 11 9 9 8 8 6 8 8 7 7 7 5 4 5 6 6 5 5 5 5 4 4 4 4 3 3 2 2 2 2 2 2 3 3 3 4 4 5 6 10 13 17
Wind_Direction
106 114 194 207 197 193 186 219 262 264 272 257 255 264 272 269 239 241 237 227 226 229 226 195 172 127 123 138 149 156 153 152 148 145 145 140 139 126 105 94 93 95 96 99
87 228 220 189 168 181 203 250 269 283 284 241 275 276 269 260 241 230 227 222 218 214 200 190 174 150 146 146 148 149 152 154 156 151 140 130 127 121 110 92 75 69 86 95
187 220 182 160 172 187 215 216 240 263 315 324 321 300 289 285 262 256 236 224 210 200 197 187 177 169 154 155 157 153 152 150 146 136 119 101 90 85 87 82 72 49 75 90
217 231 159 168 194 175 241 229 222 254 306 299 356 301 291 284 296 274 251 229 215 199 185 180 175 170 169 164 148 139 141 141 142 143 145 144 144 146 154 139 113 72 69 83
222 194 179 199 207 176 212 176 158 226 214 298 286 245 283 304 290 283 266 235 218 198 183 179 175 168 159 151 142 135 131 133 140 144 145 137 128 129 123 111 104 84 65 74
220 205 190 204 194 170 141 78 59 48 75 279 239 202 278 265 251 288 296 253 214 191 178 170 159 147 145 142 138 138 135 132 138 138 139 141 141 140 136 133 129 112 85 71
225 233 208 155 113 106 122 103 8 336 340 252 241 215 254 259 256 261 279 275 213 184 173 169 167 167 163 161 157 152 145 140 142 139 140 145 146 148 151 153 153 150 142 138
181 232 205 186 166 165 175 153 171 220 240 283 269 239 257 265 278 280 278 263 190 181 182 183 182 176 172 171 167 161 155 149 150 147 144 142 143 143 148 154 155 162 171 183
176 219 228 191 171 144 148 192 172 144 203 266 271 279 297 288 294 306 324 252 197 193 190 188 184 181 178 177 177 171 162 155 159 154 145 145 147 148 151 152 151 159 175 182
149 186 218 140 93 65 151 148 120 147 196 247 276 271 258 297 316 320 308 267 229 205 197 194 190 188 185 182 176 169 166 164 161 156 154 152 154 154 152 151 162 173 182 180
138 148 150 148 183 175 137 147 148 152 171 181 255 268 233 246 283 295 292 269 227 209 203 199 195 188 180 174 172 173 171 161 160 160 154 149 154 154 153 163 177 182 186 193
146 137 181 221 226 186 171 173 153 167 211 192 204 267 266 253 272 274 284 278 234 213 205 197 188 179 179 182 181 180 176 172 169 161 155 157 157 156 164 178 189 189 202 217
146 140 136 33 311 192 201 193 182 148 140 168 189 260 288 296 292 282 283 286 251 217 203 192 186 188 190 189 187 185 182 176 165 157 156 158 164 170 182 191 196 202 214 234
136 145 176 192 200 177 189 201 180 157 180 206 219 247 279 286 287 291 288 278 254 226 208 200 200 199 195 191 188 185 182 172 163 160 162 169 179 183 189 194 202 214 223 240
139 172 192 201 179 163 186 193 185 196 203 207 228 233 251 253 253 263 270 270 255 241 222 211 208 202 194 190 187 183 177 170 164 163 170 180 179 178 183 197 213 225 236 247
146 164 169 207 200 188 209 212 199 213 220 229 249 262 252 250 243 253 255 252 252 248 235 221 210 200 197 193 187 180 175 170 163 167 175 171 169 176 191 207 218 236 254 264
153 138 148 205 180 141 243 216 196 201 206 194 220 241 250 242 239 240 243 237 238 244 237 221 211 206 201 193 182 179 172 159 161 165 166 167 170 182 200 210 224 246 259 263
149 143 141 145 129 217 238 217 193 202 223 210 222 240 234 228 237 239 225 219 232 236 230 221 208 200 185 166 158 151 148 154 158 159 163 167 173 190 203 217 241 253 254 259
141 138 131 143 189 260 287 245 182 189 245 219 220 238 238 197 19 287 229 205 210 212 202 195 178 159 145 146 145 139 141 145 150 162 170 176 179 193 211 235 251 255 257 266
75 110 124 141 169 222 240 232 160 130 262 241 202 218 192 141 172 259 209 163 147 116 115 121 118 116 127 134 135 135 142 148 166 175 177 177 181 197 222 240 254 253 254 265
116 112 138 155 196 248 246 173 123 161 237 238 187 191 168 183 197 192 121 112 112 105 105 114 115 118 131 135 132 134 143 167 172 157 160 176 194 213 231 244 249 261 269 277
160 155 167 151 181 245 211 148 181 211 209 175 176 173 175 187 152 130 128 126 123 116 113 119 117 114 118 131 132 136 156 159 141 145 165 197 220 235 241 248 264 266 270 279
187 179 175 182 204 224 178 194 208 176 184 191 179 178 165 166 173 161 153 148 141 137 132 124 125 119 114 126 133 141 154 142 140 152 198 232 248 251 248 249 264 273 269 270
234 151 143 213 252 242 227 233 222 196 197 191 177 163 161 167 169 164 159 158 153 145 140 132 130 129 128 127 122 136 144 144 147 188 235 249 259 269 265 254 250 256 262 267
184 159 165 222 258 278 255 223 211 194 186 164 152 161 166 161 163 167 169 168 162 149 140 139 142 142 144 138 132 137 145 145 169 224 249 259 258 263 270 262 250 256 245 250
179 169 172 208 210 193 225 216 182 177 185 175 158 150 152 162 164 158 161 159 152 147 139 136 136 138 142 141 140 148 157 163 192 245 259 258 263 266 265 273 281 271 271 280